This is the latest recevied weather packets stored in our database for station/object KC0QBU-13. If no packets are shown the sender has not sent any weather packets the latest 10 day(s).
| Time | Temp. | Humidity | Pressure | Rain* | Wind** | Luminosity | Snow |
|---|---|---|---|---|---|---|---|
| 1777755231 | 17.22° C | 32% | 1020.6 hPa | 0 mm | - | - | - |
| 1777754931 | 17.22° C | 32% | 1020.5 hPa | 0 mm | - | - | - |
| 1777754601 | 16.67° C | 32% | 1020.5 hPa | 0 mm | - | - | - |
| 1777754271 | 17.22° C | 30% | 1020.7 hPa | 0 mm | - | - | - |
| 1777753941 | 17.22° C | 31% | 1020.6 hPa | 0 mm | - | - | - |
| 1777753611 | 17.22° C | 31% | 1020.7 hPa | 0 mm | - | - | - |
| 1777753311 | 17.22° C | 29% | 1020.8 hPa | 0 mm | - | - | - |
| 1777753011 | 17.78° C | 31% | 1020.8 hPa | 0 mm | - | - | - |
| 1777752681 | 17.78° C | 31% | 1020.9 hPa | 0 mm | - | - | - |
| 1777752381 | 17.78° C | 31% | 1020.9 hPa | 0 mm | - | - | - |
| 1777752081 | 17.78° C | 32% | 1020.9 hPa | 0 mm | - | - | - |
| 1777751751 | 17.22° C | 36% | 1021 hPa | 0 mm | - | - | - |
| 1777751451 | 17.22° C | 35% | 1021 hPa | 0 mm | - | - | - |
| 1777751121 | 17.22° C | 30% | 1021 hPa | 0 mm | - | - | - |
| 1777750821 | 17.22° C | 32% | 1021.1 hPa | 0 mm | - | - | - |
| 1777750521 | 17.22° C | 30% | 1021.2 hPa | 0 mm | - | - | - |
| 1777750191 | 16.67° C | 29% | 1021.3 hPa | 0 mm | - | - | - |
| 1777749891 | 16.67° C | 35% | 1021.2 hPa | 0 mm | - | - | - |
| 1777749591 | 16.67° C | 32% | 1021.3 hPa | 0 mm | - | - | - |
| 1777749261 | 16.67° C | 30% | 1021.3 hPa | 0 mm | - | - | - |
| 1777748931 | 16.67° C | 33% | 1021.4 hPa | 0 mm | - | - | - |
| 1777748631 | 16.67° C | 34% | 1021.5 hPa | 0 mm | - | - | - |
| 1777748331 | 16.67° C | 33% | 1021.6 hPa | 0 mm | - | - | - |
| 1777748031 | 16.67° C | 36% | 1021.7 hPa | 0 mm | - | - | - |
| 1777747701 | 16.67° C | 32% | 1021.7 hPa | 0 mm | - | - | - |
* Rain latest hour (hover to see other rain measurements)
** Current wind speed in m/s (hover to see current wind gust speed)